Skip Navigation Links
NOAA logo - Click to go to the NOAA homepage
NOAA's National Weather Service
Alaska Aviation Weather Unit
  NWS logo - Click to go to the NWS homepage
Left Navbar Graphic     21 AKDT = 05 GMT

   
NOAA is celebrating 200 years of science, service, and stewardship. Visit the NOAA 200th celebration Web site to learn more.
USA.gov is the U.S. Government's official Web portal to all Federal, state and local government Web resources and services.
Facebook
NWS on Facebook

Important Change Regarding the AAWU Web Presence

 

Over the last several months, the AAWU has been working to navigate its webpages to a nationally supported server. Security, as well as other needs, have necessitated the change.  In the process, we have made an effort to enhance the functionality of our website, as well as some of our products. As of June 27, 2017, aawu.arh.noaa.gov will be discontinued. The new AAWU web address is weather.gov/aawu. It is now live and will run in-parallel with the old site until it is discontinued. Please send any feedback or questions regarding the new webpages to nws.ar.aawu.webauthors@noaa.gov.  Thank you for your patience during this time of transition.
AAWU Home :: Display TAF Add Bookmark
METAR PAFE 260156Z AUTO 21003KT 10SM 12/10 A3001 RMK AO2 RAB04E32 SLP176
     P0001 T01170100 $=

METAR PAFE 260356Z AUTO 00000KT 10SM 11/10 A3001 RMK AO2 SLP175
     T01060100 $=

METAR PAFE 260456Z AUTO 00000KT 10SM -RA 11/10 A3001 RMK AO2 RAB08
     SLP175 P0000 T01110100 $=


NOAA's National Weather Service
Alaska Aviation Weather Unit
6930 Sand Lake Road
Anchorage, AK 99502-1845
Disclaimer
Credits
Glossary
Privacy Policy
About Us
Career Opportunities
Contact AAWU Internet Services Site last modified: April, 17th 2012